Location: Audinghen
(50.8518°N, 1.6129°E)
Time: 16:30:56
(UTC+00:00)

ATLAS 3B R/B - Pass Details

Date: 07 August 2020
Orbit: 1016 x 1179 km, 63.8° (Epoch: 22 September)

Event Time Altitude Azimuth Distance (km) Brightness Sun altitude
Exits shadow 01:40:58 11° 261° (W) 2,742 4.5 -19.2°
Maximum altitude 01:46:59 42° 331° (NNW) 1,433 3.6 -18.8°
Drops below altitude 10° 01:53:20 10° 41° (NE) 2,867 6.1 -18.3°
Sets 01:56:11 0° 49° (NE) 3,844 7.0 -18.1°
